Погода в Лобкове

Россия / Владимирская область     56°29′43″N   38°20′40″E
темп.,
°C
ветер,
м/с
пор.,
м/с
влажн.,
%
обл.,
%
осадки,
мм/ч
давл.,
гПа
погр.,
м
13 июня, вс
вс1300:00+13юз119511 0.0 100711
03:00+12ююз229574 0.0 100614
06:00+15ю129286 0.0 100671
09:00+19ю12825 1.1 1006379
12:00+20ю33735 2.3 10061009
15:00+22зюз24578 3.9 10061542
18:00+21с137587 0.3 1006220
21:00+17ююв228679 0.8 100816
14 июня, пн
пн1400:00+16ююз249181 0.0 100970
03:00+13юз23940 0.0 101051
06:00+16ююз24901 0.0 1012117
09:00+21юз23635 0.0 1013711
12:00+24зюз23555 0.2 10141505
15:00+25зюз345049 0.3 10141870
18:00+23з236582 0.1 1014366
21:00+17сз11895 1.3 101511
15 июня, вт
вт1500:00+16ссз11935 0.0 101511
03:00+15ссв119511 0.0 101511
06:00+17св11920 0.0 101566
09:00+22юв01704 0.0 1014497
12:00+25з22546 0.1 10121530
15:00+24с116670 2.2 1011551
18:00+21ююв228290 0.9 101042
21:00+19зсз228698 1.4 101024
16 июня, ср
ср1600:00+16зсз2294100 1.3 101029
03:00+15сз229798 1.3 101047
06:00+17сз268689 0.0 1010212
09:00+20ссз566510 0.0 1011646
12:00+21ссз576037 0.1 10131379
15:00+19ссз685923 0.2 10151050
18:00+20с48530 0.0 10151723
21:00+15ссз39700 0.0 1017251
17 июня, чт
чт1700:00+11ссз39785 0.0 1019163
03:00+9ссз28760 0.0 1021155
06:00+12ссз37720 0.0 1022202
09:00+17с35520 0.0 1023627
12:00+21ссз34430 0.0 10241533
15:00+22ссз34400 0.0 10231758
18:00+21ссз35545 0.0 1024872
21:00+14с227797 0.0 102514